FUTABA (53463 NORAD) Tracking and Keplerian Element Data

This shows tracking and keplerian element data for the satellite.

Feedback or suggestion? Click here.




ElementValue
Catalog53463
NameFUTABA
Epoch Orbit707
Epoch Day269.8519002
Epoch Year2022
RAAN192.1233
Inclination51.64
Eccentricity0.000476
Argument of Perigee295.5219
Mean Anonmoly64.5279
Mean Motion15.5430364
Decay Rate0.00045612
L11 53463U 98067UC 22269.85190020 .00045612 00000+0 68767-3 0 9991
L22 53463 51.6400 192.1233 0004760 295.5219 64.5279 15.54303640 7078

Live tracking and technical data element details for FUTABA (NORAD 53463). FUTABA can be tracked NOW for your location showing map with azimuth and elevation plus other details from your city location.

Track the satellite on the map from your city or location and see movement details for azimuth, elevation, latitude, longitude, range, height, and movement on the map or in text.







IsCatalogInMostPopularTable: catalog: 53463, numindb: 3
Update: records affected: 1



GetName: 53463 FUTABA

Hit Count: updated at: Thu, 29 Sep 2022 10:21:33 GMT